• In Belarus
  • List of Countries
  • For 7 days
  • Water Temperature
  • Satellite Maps
  • Weather Map
  • Weather Widgets
  • user-avatar
    Login

    Hourly Weather Kakanj

    Today, 17 January, Thursday

    Time Temperature Precipitation Wind Pressure Humidity
    00:00 -1°C° 0 mm 2 mps 723 mmHg 92%
    01:00 -1°C° 0 mm 2 mps 723 mmHg 92%
    02:00 -1°C° 0 mm 2 mps 723 mmHg 92%
    03:00 -1°C° 0 mm 2 mps 723 mmHg 91%
    04:00 -2°C° 0 mm 2 mps 723 mmHg 91%
    05:00 -2°C° 0 mm 2 mps 723 mmHg 91%
    06:00 -2°C° 0 mm 2 mps 722 mmHg 91%
    07:00 -2°C° 0 mm 2 mps 722 mmHg 90%
    08:00 +1°C° 0 mm 2 mps 722 mmHg 89%
    09:00 +2°C° 0 mm 2 mps 723 mmHg 87%
    10:00 +4°C° 0 mm 2 mps 723 mmHg 86%
    11:00 +5°C° 0 mm 2 mps 723 mmHg 86%
    12:00 +4°C° 0 mm 3 mps 722 mmHg 86%
    13:00 +5°C° 0 mm 3 mps 722 mmHg 87%
    14:00 +6°C° 0 mm 2 mps 722 mmHg 88%
    15:00 +5°C° 0 mm 2 mps 722 mmHg 89%
    16:00 +4°C° 0 mm 2 mps 722 mmHg 91%
    17:00 +3°C° 0 mm 2 mps 721 mmHg 91%
    18:00 +3°C° 0 mm 2 mps 721 mmHg 91%
    19:00 +1°C° 0 mm 3 mps 721 mmHg 90%
    20:00 +1°C° 0 mm 3 mps 721 mmHg 90%
    21:00 +1°C° 0 mm 3 mps 721 mmHg 90%
    22:00 0°C° 0 mm 3 mps 721 mmHg 90%
    23:00 +1°C° 0 mm 3 mps 720 mmHg 90%

    Tomorrow, 18 January, Friday

    Time Temperature Precipitation Wind Pressure Humidity
    00:00 +1°C° 0 mm 3 mps 720 mmHg 90%
    01:00 +1°C° 0 mm 3 mps 720 mmHg 90%
    02:00 +2°C° 0 mm 3 mps 719 mmHg 90%
    03:00 +2°C° 0 mm 3 mps 719 mmHg 90%
    04:00 +2°C° 0 mm 3 mps 719 mmHg 90%
    05:00 +2°C° 0 mm 3 mps 719 mmHg 90%
    06:00 +2°C° 0 mm 3 mps 719 mmHg 90%
    07:00 +2°C° 0 mm 3 mps 719 mmHg 90%
    08:00 +3°C° 0 mm 3 mps 719 mmHg 90%
    09:00 +5°C° 0 mm 2 mps 719 mmHg 90%
    10:00 +5°C° 0 mm 2 mps 720 mmHg 90%
    11:00 +5°C° 0.2 mm 2 mps 720 mmHg 92%
    12:00 +7°C° 0.2 mm 1 mps 720 mmHg 93%
    13:00 +7°C° 0.2 mm 1 mps 720 mmHg 94%
    14:00 +6°C° 0.8 mm 1 mps 721 mmHg 95%
    15:00 +4°C° 0.8 mm 2 mps 721 mmHg 95%
    16:00 +2°C° 0.8 mm 3 mps 721 mmHg 96%
    17:00 +2°C° 0.7 mm 2 mps 722 mmHg 95%
    18:00 +1°C° 0.7 mm 2 mps 722 mmHg 95%
    19:00 +1°C° 0.7 mm 2 mps 723 mmHg 95%
    20:00 -1°C° 0.1 mm 2 mps 723 mmHg 95%
    21:00 +1°C° 0.1 mm 1 mps 723 mmHg 95%
    22:00 +1°C° 0.1 mm 1 mps 724 mmHg 95%
    23:00 +1°C° 0.1 mm 1 mps 724 mmHg 95%

    Day after tomorrow, 19 January, Saturday

    Time Temperature Precipitation Wind Pressure Humidity
    00:00 0°C° 0.1 mm 1 mps 724 mmHg 95%
    01:00 0°C° 0.1 mm 1 mps 723 mmHg 96%
    02:00 0°C° 0.1 mm 1 mps 723 mmHg 95%
    03:00 0°C° 0.1 mm 1 mps 723 mmHg 95%
    04:00 0°C° 0.1 mm 1 mps 723 mmHg 95%
    05:00 0°C° 0.2 mm 1 mps 722 mmHg 95%
    06:00 0°C° 0.2 mm 1 mps 722 mmHg 94%
    07:00 0°C° 0.2 mm 1 mps 722 mmHg 94%
    08:00 +1°C° 0.2 mm 1 mps 722 mmHg 93%
    09:00 +2°C° 0.2 mm 1 mps 722 mmHg 91%
    10:00 +2°C° 0.2 mm 1 mps 722 mmHg 90%
    11:00 +3°C° 0.2 mm 1 mps 722 mmHg 90%
    12:00 +3°C° 0.2 mm 1 mps 721 mmHg 91%
    13:00 +3°C° 0.2 mm 1 mps 721 mmHg 92%
    14:00 +3°C° 0.7 mm 1 mps 721 mmHg 93%
    15:00 +3°C° 0.7 mm 1 mps 720 mmHg 94%
    16:00 +2°C° 0.7 mm 1 mps 720 mmHg 94%
    17:00 +2°C° 0.7 mm 1 mps 720 mmHg 95%
    18:00 +2°C° 0.7 mm 1 mps 720 mmHg 95%
    19:00 +1°C° 0.7 mm 1 mps 720 mmHg 95%
    20:00 +1°C° 0.6 mm 1 mps 720 mmHg 95%
    21:00 0°C° 0.6 mm 0 mps 720 mmHg 95%
    22:00 0°C° 0.6 mm 0 mps 720 mmHg 95%
    23:00 0°C° 0.1 mm 0 mps 720 mmHg 94%

    20 January, Sunday

    Time Temperature Precipitation Wind Pressure Humidity
    00:00 0°C° 0.1 mm 0 mps 720 mmHg 94%
    01:00 0°C° 0.1 mm 0 mps 720 mmHg 94%
    02:00 0°C° 0 mm 0 mps 720 mmHg 94%
    03:00 0°C° 0 mm 0 mps 720 mmHg 94%
    04:00 0°C° 0 mm 0 mps 719 mmHg 94%
    05:00 0°C° 0 mm 0 mps 720 mmHg 94%
    06:00 0°C° 0 mm 0 mps 720 mmHg 94%
    07:00 0°C° 0 mm 0 mps 720 mmHg 94%
    08:00 +1°C° 0 mm 0 mps 720 mmHg 95%
    09:00 +2°C° 0 mm 0 mps 721 mmHg 95%
    10:00 +3°C° 0 mm 0 mps 721 mmHg 96%
    11:00 +4°C° 0 mm 0 mps 721 mmHg 95%
    12:00 +4°C° 0 mm 0 mps 721 mmHg 94%
    13:00 +4°C° 0 mm 0 mps 721 mmHg 93%
    14:00 +4°C° 0 mm 0 mps 721 mmHg 93%
    15:00 +4°C° 0 mm 0 mps 721 mmHg 94%
    16:00 +3°C° 0 mm 0 mps 721 mmHg 95%
    17:00 +3°C° 0 mm 0 mps 721 mmHg 95%
    18:00 +2°C° 0 mm 0 mps 722 mmHg 95%
    19:00 +2°C° 0 mm 0 mps 722 mmHg 95%
    20:00 +1°C° 0 mm 0 mps 722 mmHg 95%
    21:00 +1°C° 0 mm 0 mps 722 mmHg 95%
    22:00 0°C° 0 mm 0 mps 723 mmHg 95%
    23:00 +1°C° 0.1 mm 0 mps 723 mmHg 95%

    21 January, Monday

    Time Temperature Precipitation Wind Pressure Humidity
    00:00 +1°C° 0.1 mm 0 mps 723 mmHg 95%
    01:00 +1°C° 0.1 mm 0 mps 723 mmHg 95%
    02:00 0°C° 0.1 mm 0 mps 723 mmHg 95%
    03:00 0°C° 0.1 mm 0 mps 723 mmHg 96%
    04:00 +1°C° 0.1 mm 1 mps 723 mmHg 96%
    05:00 +1°C° 0 mm 1 mps 723 mmHg 96%
    06:00 +1°C° 0 mm 1 mps 723 mmHg 96%
    07:00 +1°C° 0 mm 1 mps 723 mmHg 95%
    08:00 +1°C° 0 mm 1 mps 724 mmHg 94%
    09:00 +2°C° 0 mm 1 mps 724 mmHg 93%
    10:00 +3°C° 0 mm 1 mps 724 mmHg 91%
    11:00 +3°C° 0.1 mm 1 mps 724 mmHg 91%
    12:00 +3°C° 0.1 mm 1 mps 724 mmHg 90%
    13:00 +3°C° 0.1 mm 1 mps 723 mmHg 89%
    14:00 +3°C° 0.1 mm 1 mps 723 mmHg 90%
    15:00 +3°C° 0.1 mm 1 mps 723 mmHg 92%
    16:00 +2°C° 0.1 mm 1 mps 723 mmHg 93%
    17:00 +2°C° 0.2 mm 1 mps 723 mmHg 94%
    18:00 +1°C° 0.2 mm 1 mps 723 mmHg 94%
    19:00 +1°C° 0.2 mm 1 mps 723 mmHg 95%
    20:00 +1°C° 0.5 mm 1 mps 722 mmHg 95%
    21:00 +1°C° 0.5 mm 1 mps 722 mmHg 95%
    22:00 0°C° 0.5 mm 1 mps 722 mmHg 95%
    23:00 0°C° 0.9 mm 1 mps 722 mmHg 95%

    22 January, Tuesday

    Time Temperature Precipitation Wind Pressure Humidity
    00:00 0°C° 0.9 mm 1 mps 721 mmHg 95%
    01:00 0°C° 0.9 mm 1 mps 721 mmHg 95%
    02:00 0°C° 0.7 mm 1 mps 720 mmHg 95%
    03:00 0°C° 0.7 mm 1 mps 719 mmHg 95%
    04:00 0°C° 0.7 mm 1 mps 719 mmHg 95%
    05:00 -1°C° 0.4 mm 1 mps 718 mmHg 95%
    06:00 -1°C° 0.4 mm 1 mps 718 mmHg 95%
    07:00 -1°C° 0.4 mm 1 mps 717 mmHg 95%
    08:00 0°C° 0.3 mm 1 mps 717 mmHg 94%
    09:00 0°C° 0.3 mm 1 mps 716 mmHg 92%
    10:00 +1°C° 0.3 mm 1 mps 715 mmHg 91%
    11:00 +1°C° 0.5 mm 1 mps 714 mmHg 91%
    12:00 +1°C° 0.5 mm 1 mps 714 mmHg 91%
    13:00 +2°C° 0.5 mm 1 mps 713 mmHg 91%
    14:00 +1°C° 0.8 mm 1 mps 712 mmHg 92%
    15:00 +1°C° 0.8 mm 1 mps 712 mmHg 93%
    16:00 +1°C° 0.8 mm 1 mps 711 mmHg 94%
    17:00 0°C° 0 mm 1 mps 712 mmHg 94%
    18:00 -1°C° 0 mm 1 mps 712 mmHg 94%
    19:00 -2°C° 0 mm 1 mps 712 mmHg 94%
    20:00 -2°C° 0 mm 1 mps 712 mmHg 94%
    21:00 -2°C° 0 mm 1 mps 713 mmHg 94%
    22:00 -2°C° 0 mm 1 mps 714 mmHg 93%
    23:00 -2°C° 0 mm 1 mps 714 mmHg 93%
    Show more